This demonstration page uses our WeatherBlox Daily Observations layout. Learn more.

Hourly Observations for April 2, 2017

Temp ( °F °C ) Dew Point ( °F °C ) Humidity (%) Winds ( mph kmh ) Pressure ( in mb ) Visibility ( mi km ) Precip ( " mm )
12:15 am 00:15 Cloudy with Mist and Fog 40 4.7 39 4 95 95 SE 8 13 30.12 1020 3 4.82802 0 0
12:35 am 00:35 Cloudy with Mist and Fog 40 4.6 39 4 96 96 SE 9 15 30.12 1020 3 4.82802 0 0
12:55 am 00:55 Cloudy with Mist and Fog 40 4.7 39 4 95 95 S 5 7 30.12 1020 3 4.82802 0 0
1:15 am 01:15 Cloudy with Mist and Fog 40 4.7 39 4 95 95 S 3 6 30.12 1020 4 6.43736 0 0
1:35 am 01:35 Cloudy with Mist and Fog 40 4.7 39 3.9 95 95 S 5 7 30.12 1020 4 6.43736 0 0
1:55 am 01:55 Cloudy with Mist and Fog 40 4.7 39 4 95 95 SSE 6 9 30.12 1020 2 3.21868 0 0
2:15 am 02:15 Cloudy with Mist and Fog 40 4.5 39 3.9 96 96 SSE 7 11 30.09 1019 2 3.21868 0 0
2:35 am 02:35 Cloudy with Mist and Fog 40 4.6 39 4 96 96 S 7 11 30.09 1019 3 4.82802 0 0
2:55 am 02:55 Cloudy with Mist and Fog 40 4.6 39 3.9 95 95 S 7 11 30.09 1019 1.75 2.816345 0 0
3:15 am 03:15 Cloudy with Mist and Fog 40 4.5 39 4 97 97 SSW 8 13 30.09 1019 0.75 1.207005 0 0
3:35 am 03:35 Cloudy with Mist and Fog 40 4.5 39 4 97 97 SW 7 11 30.06 1018 2 3.21868 0 0
3:55 am 03:55 Cloudy with Mist and Fog 40 4.7 39 4.1 96 96 SW 6 9 30.06 1018 4 6.43736 0 0
4:15 am 04:15 Cloudy with Mist and Fog 40 4.7 39 4 95 95 SW 6 9 30.06 1018 5 8.0467 0 0
4:35 am 04:35 Cloudy with Mist and Fog 41 4.8 39 4 95 95 SSW 3 6 30.06 1018 5 8.0467 0 0
4:55 am 04:55 Cloudy with Mist and Fog 41 4.8 39 3.8 93 93 SSW 5 7 30.03 1017 5 8.0467 0 0
5:15 am 05:15 Cloudy with Mist and Fog 41 4.8 39 4 95 95 S 5 7 30.03 1017 4 6.43736 0 0
5:35 am 05:35 Cloudy with Mist and Fog 41 4.8 39 4 95 95 SSE 5 7 30.03 1017 3 4.82802 0 0
5:55 am 05:55 Cloudy with Mist and Fog 41 4.8 39 4.1 95 95 S 3 6 30.03 1017 4 6.43736 0 0
6:15 am 06:15 Cloudy with Mist and Fog 40 4.7 39 4 95 95 Calm 30 1016 4 6.43736 0 0
6:35 am 06:35 Cloudy with Mist and Fog 41 4.8 39 4 95 95 Calm 30 1016 4 6.43736 0 0
6:55 am 06:55 Cloudy with Mist and Fog 40 4.7 39 4 95 95 SSE 5 7 30.03 1017 4 6.43736 0 0
7:15 am 07:15 Cloudy with Mist and Fog 40 4.6 39 4 96 96 SSE 3 6 30.03 1017 3 4.82802 0 0
7:35 am 07:35 Cloudy with Mist and Fog 40 4.2 38 3.5 95 95 S 5 7 30.03 1017 2.5 4.02335 0 0
7:55 am 07:55 Mostly Cloudy with Mist and Fog 39 3.7 37 3 95 95 SSW 5 7 30.03 1017 2 3.21868 0 0
8:15 am 08:15 Partly Cloudy with Mist and Fog 40 4.2 38 3.6 96 96 Calm 30.03 1017 3 4.82802 0 0
8:35 am 08:35 Partly Cloudy with Mist and Fog 41 5.1 40 4.5 96 96 Calm 30.03 1017 5 8.0467 0 0
8:55 am 08:55 Mostly Cloudy 43 6.2 40 4.7 90 90 SSW 5 7 30 1016 10 16.0934 0 0
9:15 am 09:15 Cloudy 44 6.7 41 5 89 89 SSW 3 6 29.97 1015 10 16.0934 0 0
9:35 am 09:35 Mostly Cloudy 45 7.2 40 4.5 83 83 SW 5 7 29.97 1015 10 16.0934 0 0
9:55 am 09:55 Cloudy 46 8 41 4.8 80 80 SSW 6 9 29.97 1015 10 16.0934 0 0
10:15 am 10:15 Mostly Cloudy 47 8.3 39 4.1 75 75 S 7 11 29.97 1015 10 16.0934 0 0
10:35 am 10:35 Cloudy 47 8.5 39 3.8 73 73 S 7 11 29.97 1015 10 16.0934 0 0
10:55 am 10:55 Cloudy 47 8.5 39 3.9 73 73 SSW 6 9 29.91 1013 10 16.0934 0 0
11:15 am 11:15 Cloudy 49 9.3 40 4.3 71 71 S 10 17 29.91 1013 10 16.0934 0 0
11:35 am 11:35 Cloudy 49 9.2 39 4.1 71 71 SSW 7 11 29.91 1013 10 16.0934 0 0
11:55 am 11:55 Cloudy 50 10 41 4.9 71 71 SSW 9 15 29.91 1013 10 16.0934 0 0
12:15 pm 12:15 Cloudy 51 10.6 40 4.7 67 67 SSW 10 17 29.88 1012 10 16.0934 0 0
12:35 pm 12:35 Mostly Cloudy 51 10.8 40 4.6 66 66 SSW 9 15 29.88 1012 10 16.0934 0 0
12:55 pm 12:55 Mostly Cloudy 53 11.5 40 4.5 62 62 SW 12 19 29.85 1011 10 16.0934 0 0
1:15 pm 13:15 Mostly Cloudy 53 11.4 40 4.7 64 64 SSW 8 13 29.83 1010 10 16.0934 0 0
1:35 pm 13:35 Mostly Cloudy 53 11.5 40 4.5 62 62 SSW 6 9 29.83 1010 10 16.0934 0 0
1:55 pm 13:55 Partly Cloudy 53 11.6 40 4.5 62 62 SSW 10 17 29.8 1009 10 16.0934 0 0
2:15 pm 14:15 Partly Cloudy 55 12.5 41 5.1 61 61 SW 5 7 29.8 1009 10 16.0934 0 0
2:35 pm 14:35 Partly Cloudy 55 12.6 41 5.1 61 61 SW 6 9 29.77 1008 10 16.0934 0 0
2:55 pm 14:55 Sunny 56 13.5 41 5 57 57 S 6 9 29.77 1008 10 16.0934 0 0
3:15 pm 15:15 Sunny 57 14.1 41 5 55 55 SW 10 17 29.74 1007 10 16.0934 0 0
3:35 pm 15:35 Sunny 58 14.3 41 5 54 54 SSE 8 13 29.74 1007 10 16.0934 0 0
3:55 pm 15:55 Sunny 58 14.3 40 4.7 53 53 SSW 8 13 29.74 1007 10 16.0934 0 0
4:15 pm 16:15 Sunny 58 14.5 41 5 53 53 SSW 5 7 29.74 1007 10 16.0934 0 0
4:35 pm 16:35 Sunny 58 14.4 41 5 53 53 S 5 7 29.71 1006 10 16.0934 0 0
4:55 pm 16:55 Sunny 58 14.5 42 5.5 55 55 SE 7 11 29.71 1006 10 16.0934 0 0
5:15 pm 17:15 Sunny 59 14.9 42 5.4 53 53 SSE 8 13 29.71 1006 10 16.0934 0 0
5:35 pm 17:35 Sunny 59 15 42 5.5 53 53 SSE 9 15 29.71 1006 10 16.0934 0 0
5:55 pm 17:55 Partly Cloudy 59 15.1 42 5.3 52 52 S 8 13 29.71 1006 10 16.0934 0 0
6:15 pm 18:15 Partly Cloudy 59 15.1 42 5.5 53 53 SSE 7 11 29.71 1006 10 16.0934 0 0
6:35 pm 18:35 Sunny 59 14.8 42 5.6 54 54 SE 7 11 29.68 1005 10 16.0934 0 0
6:55 pm 18:55 Sunny 58 14.2 42 5.7 57 57 SSE 10 17 29.68 1005 10 16.0934 0 0
7:15 pm 19:15 Sunny 56 13.5 43 6.1 61 61 SSE 9 15 29.68 1005 10 16.0934 0 0
7:35 pm 19:35 Sunny 55 12.7 44 6.5 66 66 SE 5 7 29.71 1006 10 16.0934 0 0
7:55 pm 19:55 Sunny 52 11.2 44 6.4 73 73 SE 7 11 29.71 1006 10 16.0934 0 0
8:15 pm 20:15 Clear 51 10.7 43 6.1 73 73 SE 7 11 29.71 1006 10 16.0934 0 0
8:35 pm 20:35 Clear 48 9.1 42 5.5 78 78 SE 9 15 29.74 1007 10 16.0934 0 0
8:55 pm 20:55 Clear 49 9.3 43 6 80 80 SSE 7 11 29.74 1007 10 16.0934 0 0
9:15 pm 21:15 Clear 48 8.7 42 5.8 82 82 SSE 10 17 29.77 1008 10 16.0934 0 0
9:35 pm 21:35 Clear 47 8.6 44 6.6 87 87 SSE 9 15 29.77 1008 10 16.0934 0 0
9:55 pm 21:55 Clear 47 8.1 44 6.5 90 90 SSE 9 15 29.77 1008 10 16.0934 0 0
10:15 pm 22:15 Clear 47 8.4 45 7 91 91 SSE 9 15 29.77 1008 10 16.0934 0 0
10:35 pm 22:35 Clear 46 7.5 44 6.5 93 93 SSE 7 11 29.74 1007 10 16.0934 0 0
10:55 pm 22:55 Clear 45 7.2 43 6 92 92 SSE 6 9 29.74 1007 10 16.0934 0 0
11:15 pm 23:15 Clear 44 6.6 42 5.7 94 94 S 5 7 29.74 1007 10 16.0934 0 0
11:35 pm 23:35 Clear 44 6.5 42 5.7 95 95 S 3 6 29.77 1008 7 11.26538 0 0
11:55 pm 23:55 Clear 44 6.4 42 5.6 95 95 Calm 29.71 1006 7 11.26538 0 0

Powered by AerisWeather